TimeCET,TemperatureF,Dew PointF,Humidity,Sea Level PressureIn,VisibilityMPH,Wind Direction,Wind SpeedMPH,Gust SpeedMPH,PrecipitationIn,Events,Conditions,WindDirDegrees,DateUTC
12:20 AM,48.2,39.2,71,29.56,6.2,SSW,13.8,-,N/A,,Partly Cloudy,210,2012-11-26 23:20:00
12:50 AM,48.2,39.2,71,29.56,6.2,SSW,11.5,-,N/A,Rain,Light Rain,200,2012-11-26 23:50:00
1:00 AM,47,39,65,29.58,12,SSW,11.2,,,Rain,Light Rain,200,2012-11-27 00:00:00
1:20 AM,46.4,41.0,81,29.56,6.2,SSW,12.7,-,N/A,,Mostly Cloudy,210,2012-11-27 00:20:00
1:50 AM,48.2,41.0,76,29.56,6.2,SSW,13.8,-,N/A,,Mostly Cloudy,200,2012-11-27 00:50:00
2:20 AM,46.4,41.0,81,29.56,6.2,SSW,12.7,-,N/A,,Mostly Cloudy,210,2012-11-27 01:20:00
2:50 AM,46.4,39.2,76,29.56,6.2,SSW,11.5,-,N/A,,Mostly Cloudy,200,2012-11-27 01:50:00
3:20 AM,46.4,39.2,76,29.56,6.2,SSW,11.5,-,N/A,,Mostly Cloudy,200,2012-11-27 02:20:00
3:50 AM,46.4,39.2,76,29.56,6.2,South,11.5,-,N/A,,Mostly Cloudy,190,2012-11-27 02:50:00
4:00 AM,46,40,72,29.57,19,South,11.2,,,,Partly Cloudy,190,2012-11-27 03:00:00
4:20 AM,46.4,41.0,81,29.56,6.2,South,10.4,-,N/A,Rain,Light Rain,190,2012-11-27 03:20:00
4:50 AM,44.6,41.0,87,29.56,6.2,South,8.1,-,N/A,Rain,Light Rain,190,2012-11-27 03:50:00
5:20 AM,44.6,41.0,87,29.56,6.2,South,9.2,-,N/A,,Mostly Cloudy,190,2012-11-27 04:20:00
5:50 AM,44.6,41.0,87,29.56,6.2,South,8.1,-,N/A,Rain,Light Rain,190,2012-11-27 04:50:00
6:20 AM,44.6,39.2,81,29.56,6.2,South,9.2,-,N/A,,Partly Cloudy,190,2012-11-27 05:20:00
6:50 AM,42.8,39.2,87,29.56,6.2,South,9.2,-,N/A,,Partly Cloudy,190,2012-11-27 05:50:00
7:00 AM,44,39,78,29.58,16,South,8.9,,,,Partly Cloudy,190,2012-11-27 06:00:00
7:20 AM,44.6,39.2,81,29.56,6.2,South,9.2,-,N/A,,Scattered Clouds,190,2012-11-27 06:20:00
7:50 AM,44.6,39.2,81,29.56,6.2,South,9.2,-,N/A,,Mostly Cloudy,190,2012-11-27 06:50:00
8:20 AM,44.6,41.0,87,29.59,6.2,South,8.1,-,N/A,,Mostly Cloudy,190,2012-11-27 07:20:00
8:50 AM,44.6,39.2,81,29.59,6.2,South,9.2,-,N/A,,Mostly Cloudy,190,2012-11-27 07:50:00
9:20 AM,44.6,39.2,81,29.59,6.2,SSW,8.1,-,N/A,,Mostly Cloudy,200,2012-11-27 08:20:00
9:50 AM,44.6,39.2,81,29.62,6.2,South,10.4,-,N/A,Rain,Light Rain,190,2012-11-27 08:50:00
10:00 AM,45,40,76,29.63,12,South,8.9,,,Rain,Light Rain,190,2012-11-27 09:00:00
10:20 AM,44.6,39.2,81,29.62,6.2,SSW,6.9,-,N/A,,Mostly Cloudy,200,2012-11-27 09:20:00
10:50 AM,46.4,39.2,76,29.62,6.2,South,6.9,-,N/A,,Mostly Cloudy,190,2012-11-27 09:50:00
11:20 AM,46.4,39.2,76,29.62,6.2,South,8.1,-,N/A,,Scattered Clouds,180,2012-11-27 10:20:00
11:50 AM,46.4,39.2,76,29.62,6.2,South,8.1,-,N/A,,Scattered Clouds,180,2012-11-27 10:50:00
12:20 PM,44.6,39.2,81,29.62,6.2,South,12.7,-,N/A,Rain,Light Rain Showers,180,2012-11-27 11:20:00
12:50 PM,44.6,41.0,87,29.62,6.2,SSW,5.8,-,N/A,Rain,Light Rain Showers,210,2012-11-27 11:50:00
1:00 PM,45,41,82,29.64,7,SSW,4.5,,,Rain,Light Rain Showers,210,2012-11-27 12:00:00
1:20 PM,44.6,41.0,87,29.62,6.2,South,6.9,-,N/A,Rain,Light Rain,190,2012-11-27 12:20:00
1:50 PM,44.6,41.0,87,29.62,5.0,SSW,8.1,-,N/A,Rain,Rain Showers,200,2012-11-27 12:50:00
2:20 PM,44.6,42.8,93,29.62,3.7,SW,3.5,-,N/A,Rain,Light Rain,230,2012-11-27 13:20:00
2:50 PM,44.6,41.0,87,29.62,6.2,SSW,5.8,-,N/A,Rain,Light Rain,210,2012-11-27 13:50:00
3:20 PM,44.6,42.8,93,29.62,6.2,South,3.5,-,N/A,,Mostly Cloudy,190,2012-11-27 14:20:00
3:50 PM,44.6,42.8,93,29.62,6.2,SSW,3.5,-,N/A,,Mostly Cloudy,200,2012-11-27 14:50:00
4:00 PM,45,42,86,29.65,11,SSW,2.2,,,Rain,Light Rain,200,2012-11-27 15:00:00
4:20 PM,44.6,42.8,93,29.62,6.2,South,2.3,-,N/A,,Mostly Cloudy,190,2012-11-27 15:20:00
4:50 PM,44.6,42.8,93,29.65,6.2,Calm,Calm,-,N/A,,Mostly Cloudy,0,2012-11-27 15:50:00
5:20 PM,44.6,41.0,87,29.65,6.2,SSW,1.2,-,N/A,,Mostly Cloudy,200,2012-11-27 16:20:00
5:50 PM,42.8,41.0,93,29.65,6.2,South,1.2,-,N/A,,Mostly Cloudy,170,2012-11-27 16:50:00
6:20 PM,42.8,41.0,93,29.65,6.2,SE,2.3,-,N/A,,Partly Cloudy,130,2012-11-27 17:20:00
6:50 PM,42.8,41.0,93,29.65,6.2,SSW,2.3,-,N/A,,Partly Cloudy,200,2012-11-27 17:50:00
7:00 PM,43,41,89,29.69,12,SSW,2.2,,,,Partly Cloudy,200,2012-11-27 18:00:00
7:20 PM,42.8,41.0,93,29.68,6.2,Variable,2.3,-,N/A,,Partly Cloudy,0,2012-11-27 18:20:00
7:50 PM,42.8,39.2,87,29.68,6.2,South,3.5,-,N/A,,Partly Cloudy,180,2012-11-27 18:50:00
8:20 PM,41.0,39.2,93,29.68,6.2,South,3.5,-,N/A,,Partly Cloudy,190,2012-11-27 19:20:00
8:50 PM,41.0,39.2,93,29.68,6.2,South,3.5,-,N/A,,Partly Cloudy,190,2012-11-27 19:50:00
9:20 PM,41.0,39.2,93,29.68,-9999.0,SSW,2.3,-,N/A,,Clear,210,2012-11-27 20:20:00
9:50 PM,41.0,39.2,93,29.71,6.2,WSW,2.3,-,N/A,,Scattered Clouds,240,2012-11-27 20:50:00
10:00 PM,41,39,92,29.72,9,WSW,2.2,,,,Mostly Cloudy,240,2012-11-27 21:00:00
10:20 PM,41.0,39.2,93,29.71,6.2,South,3.5,-,N/A,,Partly Cloudy,190,2012-11-27 21:20:00
10:50 PM,41.0,39.2,93,29.71,-9999.0,South,4.6,-,N/A,,Clear,190,2012-11-27 21:50:00
11:20 PM,42.8,39.2,87,29.71,-9999.0,SSW,2.3,-,N/A,,Clear,200,2012-11-27 22:20:00
11:50 PM,41.0,39.2,93,29.71,-9999.0,WSW,2.3,-,N/A,,Clear,250,2012-11-27 22:50:00